Погода в Алба-Юлии

Румыния     46°04′20″N   23°34′22″E
темп.,
°C
ветер,
м/с
пор.,
м/с
влажн.,
%
обл.,
%
осадки,
мм/ч
давл.,
гПа
погр.,
м
22 октября, пт
пт2200:00+13зюз2358100 0.0 101579
03:00+12зюз376698 0.0 1015168
06:00+12з2584100 0.2 1016131
09:00+12зюз1288100 0.6 101896
12:00+12юз1387100 0.6 1019272
15:00+16з4663100 0.6 1017704
18:00+12зюз3579100 0.1 1017173
21:00+12зюз2279100 0.1 101860
23 октября, сб
сб2300:00+10зюз2283100 0.0 101814
03:00+10зюз1389100 0.4 1019121
06:00+10ююз1296100 2.7 1020141
09:00+10зюз479266 2.8 1022407
12:00+13зюз67584 0.0 1023967
15:00+14з78400 0.0 10221222
18:00+11з6104825 0.0 1024553
21:00+10зюз585698 0.0 1026521
24 октября, вс
вс2400:00+7з49684 0.0 1027212
03:00+5зюз33773 0.0 102850
06:00+3з22813 0.0 102914
09:00+4з12745 0.0 103166
12:00+10ююз11490 0.0 1031633
15:00+12в22374 0.0 10301525
18:00+9вюв22451 0.0 103110
21:00+5в22540 0.0 103314
25 октября, пн
пн2500:00+4св22580 0.0 103314
03:00+3ссв11623 0.0 103310
06:00+2св11654 0.0 103310
09:00+3св11633 0.0 103434
12:00+8всв33435 0.0 1032537
15:00+12св34351 0.0 1030824
18:00+9с22430 0.0 102815
21:00+6ссз11520 0.0 102910
26 октября, вт
вт2600:00+4ссз00560 0.0 102910
03:00+3сз006277 0.0 102910
06:00+2зсз0067100 0.0 102810
09:00+3св1166100 0.0 102814
12:00+9всв114977 0.0 1027367
15:00+12в113886 0.0 1025549
18:00+9вюв114794 0.0 102410
21:00+6з115775 0.0 102610